Welcome to our new website - Welkom op onze vernieuwde website - Bienvenue sur notre nouveau site web - Willkommen auf unserer neuen Website
Check our progress frequently. Prüfen Sie unsere Fortschritte regelmäßig. Consultez notre progression fréquemment. Komt u straks nog eens terug
Het weer levert geen direct gevaar op.    Er zijn geen waarschuwingen afgegeven.

Regen radar Meer informatie rain snow radar


Bezoek ook deze websites:

Template documentation
and downloads

And another site


U vindt ons ook hier:

UK Metoffice

WeatherCloud

Weather Underground

AWEKAS



Select another period ( hide this area )

Eenheden Periode Custom range Directly to
Metrisch Engels Beide
Dagelijkse Wekelijkse Maandelijkse Jaarlijkse
use both date-selectors for a custom range
previous Dag
With this date

WeatherUnderground graphs for this period ( click here )


Dagelijkse Samenvatting Woensdag 14 april 2021
Tijd Temp. ( °C ) Dew pt. ( °C ) Wind ( km/h ) van Windvlaag ( km/h ) Luchtdruk ( hPa ) Humid.( % ) Rainrate ( cm ) Zonneschijn ( W/m2 )
Hoog9,1 3,1 34,0 NNO ( 1287/2074 ) 37,0 1032,2 87 - 874
Gemiddeld5,6 1,0 9,1 Kalm #83/228 11,9 1030,9 73 - 399 #145/228
Laag0,9 -1,8 -   0,0 1030,1 62 -  
Dagelijkse Tabular details for Woensdag 14 april 2021
Tijd Temp. ( °C ) Dew pt. ( °C ) Wind ( km/h ) van Windvlaag ( km/h ) Luchtdruk ( hPa ) Humid.( % ) Rainrate ( cm ) Zonneschijn ( W/m2 )
00:04 4,6 -0,4   Kalm   1032,2 70 - -
00:08 4,6 -0,4   Kalm   1032,2 70 - -
00:14 4,5 -0,5   Kalm   1032,2 70 - -
00:19 4,4 -0,5   Kalm   1031,8 71 - -
00:24 4,3 -0,5   Kalm   1031,8 71 - -
00:29 4,2 -0,6   Kalm   1031,8 71 - -
00:34 4,1 -0,5   Kalm   1031,8 72 - -
00:39 4,0 -0,6   Kalm   1031,8 72 - -
00:44 3,9 -0,5   Kalm   1031,8 73 - -
00:49 3,9 -0,3   Kalm   1031,8 74 - -
00:54 3,9 -0,1   Kalm   1031,8 75 - -
00:59 4,0 0,0   Kalm   1031,8 75 - -
01:04 3,9 -0,1   Kalm   1031,8 75 - -
01:09 3,9 0,1 1,0 NNW 2,0 1031,8 76 - -
01:14 3,9 0,2 1,0 NNW 3,0 1031,8 77 - -
01:19 3,9 0,2   Kalm 2,0 1031,8 77 - -
01:24 3,9 0,2   Kalm   1031,8 77 - -
01:29 3,9 0,2 3,0 OZO 3,0 1031,8 77 - -
01:34 3,9 0,2   Kalm 2,0 1031,8 77 - -
01:39 4,0 0,3   Kalm   1031,5 77 - -
01:44 3,9 0,2   Kalm   1031,5 77 - -
01:49 3,9 0,4   Kalm   1031,5 78 - -
01:53 3,9 0,4   Kalm   1031,5 78 - -
01:59 3,9 0,4   Kalm 2,0 1031,5 78 - -
02:04 3,9 0,6   Kalm   1031,5 79 - -
02:09 3,9 0,6   Kalm   1031,5 79 - -
02:14 3,8 0,5   Kalm   1031,5 79 - -
02:19 3,8 0,5   Kalm   1031,5 79 - -
02:24 3,8 0,6 1,0 OZO 2,0 1031,5 80 - -
02:29 3,7 0,7 1,0 OZO 2,0 1031,5 81 - -
02:34 3,7 0,7   Kalm   1031,5 81 - -
02:39 3,6 0,6   Kalm   1031,5 81 - -
02:44 3,6 0,6   Kalm   1031,5 81 - -
02:49 3,5 0,5 1,0 OZO 2,0 1031,2 81 - -
02:54 3,4 0,4 1,0 OZO 3,0 1031,2 81 - -
02:59 3,4 0,4 1,0 OZO 2,0 1031,2 81 - -
03:04 3,3 0,4 1,0 OZO 2,0 1031,2 81 - -
03:09 3,3 0,4 3,0 OZO 3,0 1031,2 81 - -
03:14 3,3 0,2 1,0 OZO 3,0 1031,2 80 - -
03:19 3,2 -0,1 1,0 ZO 3,0 1031,2 79 - -
03:24 3,2 -0,3   Kalm 2,0 1031,2 78 - -
03:29 3,1 -0,2 1,0 ZO 2,0 1031,2 79 - -
03:34 3,1 -0,2   Kalm 2,0 1031,2 79 - -
03:39 3,0 -0,6 1,0 ZO 3,0 1031,2 77 - -
03:44 3,1 -0,7 3,0 ZO 5,0 1031,2 76 - -
03:49 3,2 -0,7 3,0 ZZO 5,0 1031,2 76 - -
03:54 3,2 -0,8 1,0 ZZO 3,0 1031,2 75 - -
03:59 3,2 -0,8   Kalm 2,0 1031,2 75 - -
04:04 3,2 -0,8   Kalm   1031,2 75 - -
04:09 3,1 -0,9   Kalm   1031,2 75 - -
04:14 3,0 -1,0   Kalm   1031,2 75 - -
04:19 3,0 -1,1   Kalm   1031,2 75 - -
04:24 2,9 -0,9   Kalm   1031,2 76 - -
04:29 2,8 -0,8   Kalm   1031,2 77 - -
04:34 2,7 -0,9   Kalm   1031,2 77 - -
04:39 2,7 -0,8   Kalm   1031,2 78 - -
04:49 2,4 -1,0   Kalm   1031,2 78 - -
04:54 2,3 -1,1   Kalm   1031,2 78 - -
04:59 2,1 -1,3   Kalm   1031,2 78 - -
05:04 2,1 -1,3   Kalm   1031,2 79 - -
05:09 1,9 -1,4   Kalm   1030,8 79 - -
05:14 1,8 -1,5   Kalm   1030,8 79 - -
05:19 1,7 -1,4   Kalm   1030,8 80 - -
05:24 1,7 -1,4   Kalm   1030,8 80 - -
05:28 1,7 -1,2   Kalm   1030,8 81 - -
05:34 1,6 -1,3   Kalm   1030,8 81 - -
05:39 1,4 -1,5   Kalm   1030,8 81 - -
05:44 1,3 -1,6   Kalm   1030,8 81 - -
05:49 1,3 -1,6   Kalm   1030,8 81 - -
05:54 1,2 -1,7   Kalm   1030,8 81 - -
05:59 1,2 -1,5   Kalm   1030,8 82 - -
06:04 1,1 -1,6   Kalm   1030,8 82 - -
06:09 1,1 -1,6   Kalm   1030,5 82 - -
06:14 0,9 -1,8   Kalm   1030,8 82 - -
06:19 0,9 -1,7   Kalm   1030,5 83 - -
06:24 0,9 -1,7   Kalm   1030,5 83 - -
06:29 0,9 -1,7   Kalm   1030,5 83 - -
06:34 1,1 -1,5   Kalm   1030,5 83 - -
06:39 1,1 -1,5   Kalm   1030,5 83 - -
06:44 1,1 -1,5   Kalm   1030,5 83 - -
06:49 1,1 -1,5   Kalm   1030,5 83 - -
06:54 1,2 -1,2   Kalm   1030,5 84 - -
06:59 1,2 -1,2   Kalm   1030,5 84 - -
07:04 1,2 -1,0   Kalm   1030,5 85 - 5
07:09 1,3 -0,9 1,0 ZZW 3,0 1030,8 85 - 9
07:14 1,3 -0,8 3,0 ZZW 3,0 1030,8 86 - 14
07:18 1,3 -0,8   Kalm 3,0 1030,5 86 - 18
07:24 1,3 -0,8   Kalm   1030,8 86 - 25
07:29 1,3 -0,8   Kalm   1030,8 86 - 35
07:34 1,3 -0,8   Kalm 2,0 1030,8 86 - 42
07:39 1,3 -0,8   Kalm   1030,8 86 - 46
07:44 1,4 -0,7   Kalm   1030,8 86 - 51
07:49 1,4 -0,5 1,0 ZZW 3,0 1031,2 87 - 65
07:54 1,6 -0,3   Kalm 2,0 1031,2 87 - 77
07:59 1,7 -0,2   Kalm   1031,2 87 - 83
08:04 1,9 0,0   Kalm   1031,2 87 - 121
08:09 2,0 0,1   Kalm   1031,2 87 - 141
08:14 2,2 0,3   Kalm   1031,2 87 - 97
08:19 2,3 0,4   Kalm   1031,2 87 - 104
08:24 2,6 0,7   Kalm   1031,2 87 - 142
08:29 2,8 0,9   Kalm   1031,2 87 - 116
08:34 3,2 1,2   Kalm   1031,2 87 - 244
08:39 3,7 1,6   Kalm   1031,2 87 - 279
08:44 4,1 1,7 3,0 WZW 3,0 1031,2 86 - 287
08:49 4,4 1,6 3,0 Westen 5,0 1031,2 83 - 285
08:54 4,6 1,4 5,0 WNW 5,0 1031,2 81 - 278
08:59 4,8 1,3 3,0 WNW 5,0 1031,2 78 - 276
09:04 5,1 1,8 3,0 WNW 3,0 1031,2 79 - 285
09:09 5,3 1,8 5,0 WNW 5,0 1031,2 78 - 299
09:14 5,4 1,3 3,0 WNW 6,0 1031,2 75 - 309
09:19 5,8 1,5 3,0 WNW 6,0 1031,2 74 - 327
09:24 6,1 1,6 5,0 NW 6,0 1031,2 74 - 341
09:29 6,2 1,4 5,0 WNW 6,0 1031,2 72 - 355
09:34 6,4 1,1 3,0 WNW 6,0 1031,2 70 - 366
09:39 6,4 0,9 3,0 WNW 5,0 1031,2 68 - 373
09:44 6,6 1,3 6,0 NW 6,0 1031,2 69 - 385
09:49 6,7 0,8 3,0 NW 6,0 1031,2 66 - 404
09:54 7,1 1,4 3,0 WNW 5,0 1031,2 67 - 420
09:59 7,2 1,4 3,0 WNW 6,0 1031,2 67 - 434
10:04 7,4 1,2 8,0 NNW 10,0 1031,2 65 - 448
10:09 7,5 0,9 5,0 NW 10,0 1031,2 63 - 455
10:14 7,8 1,2 6,0 NNW 10,0 1031,2 63 - 476
10:19 7,8 1,2 10,0 Noorden 11,0 1031,2 63 - 503
10:24 7,8 1,5 10,0 NNW 16,0 1031,2 65 - 557
10:29 7,8 2,3 8,0 Noorden 16,0 1031,2 68 - 605
10:34 8,0 2,7 13,0 NNO 15,0 1031,2 69 - 628
10:39 8,2 2,9 11,0 NNW 16,0 1031,2 69 - 578
10:44 7,9 2,5 14,0 NNO 15,0 1031,2 69 - 192
10:49 7,8 2,6 14,0 NNO 18,0 1031,2 70 - 603
10:54 7,9 3,0 13,0 Noorden 16,0 1031,2 71 - 591
10:59 8,0 2,9 14,0 NNO 15,0 1031,2 70 - 594
11:04 7,9 2,8 13,0 NNO 18,0 1031,2 70 - 649
11:08 8,1 2,8 13,0 NO 18,0 1031,2 69 - 693
11:14 8,2 3,0 23,0 NNO 23,0 1031,2 70 - 643
11:19 8,1 2,6 16,0 NNO 23,0 1031,2 69 - 696
11:24 8,2 3,1 18,0 NNO 21,0 1031,5 70 - 696
11:29 8,2 2,9 18,0 NNO 21,0 1031,5 69 - 679
11:34 8,1 2,8 18,0 NNO 23,0 1031,5 69 - 459
11:39 7,8 2,4 21,0 NNO 21,0 1031,5 69 - 675
11:44 7,8 2,5 14,0 NO 19,0 1031,2 69 - 722
11:49 8,2 3,0 13,0 NO 16,0 1031,2 70 - 749
11:54 8,3 2,7 14,0 NO 18,0 1031,2 68 - 784
11:59 8,4 2,8 18,0 ONO 18,0 1031,2 68 - 791
12:04 8,6 2,8 18,0 NO 21,0 1031,2 67 - 810
12:09 8,6 2,8 20,0 NO 21,0 1031,2 67 - 777
12:14 8,2 2,4 21,0 NO 21,0 1031,2 67 - 631
12:19 8,4 2,7 11,0 NO 19,0 1031,2 68 - 585
12:24 8,4 2,4 18,0 NO 23,0 1031,2 66 - 302
12:29 8,3 2,3 14,0 NO 19,0 1031,2 66 - 731
12:34 8,4 2,4 13,0 NNO 19,0 1031,2 66 - 686
12:39 8,4 2,0 16,0 NNO 16,0 1030,8 64 - 487
12:44 8,4 2,0 16,0 NNO 18,0 1031,2 64 - 487
12:49 8,3 2,1 13,0 Noorden 16,0 1030,8 65 - 204
12:54 8,3 1,9 14,0 NNO 15,0 1030,8 64 - 192
12:59 8,2 1,8 13,0 NNW 21,0 1030,8 64 - 193
13:04 8,1 2,1 11,0 Noorden 19,0 1030,8 66 - 183
13:09 8,2 2,2 10,0 Noorden 19,0 1030,8 66 - 230
13:14 8,1 1,7 14,0 Noorden 19,0 1030,8 64 - 306
13:19 8,3 2,0 14,0 NNO 23,0 1030,8 65 - 587
13:24 8,6 2,4 18,0 NNO 19,0 1030,8 65 - 643
13:29 8,7 2,7 18,0 NNO 21,0 1030,8 66 - 657
13:34 8,6 2,4 16,0 Noorden 19,0 1030,8 65 - 796
13:39 8,7 2,5 18,0 NNO 21,0 1030,8 65 - 758
13:44 8,7 2,5 13,0 NNO 23,0 1030,8 65 - 323
13:49 8,6 2,7 20,0 NNO 24,0 1030,8 67 - 253
13:54 8,4 2,4 24,0 NNO 27,0 1030,8 67 - 257
13:59 8,1 2,8 23,0 NNO 29,0 1030,8 69 - 246
14:04 8,1 2,8 27,0 NNO 31,0 1030,8 69 - 376
14:09 8,3 3,1 26,0 Noorden 31,0 1030,8 70 - 842
14:14 8,2 2,6 20,0 NNO 26,0 1030,8 68 - 355
14:19 8,2 2,4 21,0 NNO 26,0 1030,8 67 - 388
14:24 8,3 2,7 21,0 NNO 26,0 1030,8 68 - 805
14:29 8,6 2,8 29,0 NNO 29,0 1030,8 68 - 819
14:34 8,8 3,0 16,0 Noorden 29,0 1030,8 67 - 835
14:39 8,7 2,5 21,0 NNO 29,0 1030,8 65 - 230
14:44 8,3 2,1 18,0 Noorden 26,0 1030,8 65 - 297
14:49 8,2 2,0 16,0 NO 24,0 1030,8 65 - 830
14:54 8,6 2,4 18,0 Noorden 26,0 1030,8 66 - 874
14:59 8,7 2,5 21,0 NNO 24,0 1030,8 65 - 316
15:04 8,6 1,8 20,0 NNO 26,0 1030,8 63 - 819
15:08 8,6 2,0 23,0 NNO 24,0 1030,8 63 - 833
15:14 8,6 2,2 24,0 NO 26,0 1030,5 64 - 793
15:19 8,6 2,0 23,0 NNO 24,0 1030,5 63 - 772
15:24 8,5 2,0 20,0 NNO 24,0 1030,5 64 - 236
15:29 8,3 1,8 20,0 NNO 27,0 1030,5 64 - 401
15:34 8,3 1,9 24,0 NO 27,0 1030,5 64 - 401
15:39 8,5 2,1 23,0 NNO 23,0 1030,5 64 - 770
15:44 8,9 2,3 26,0 NNO 34,0 1030,1 64 - 791
15:49 8,8 1,8 21,0 NNO 29,0 1030,1 62 - 218
15:54 8,5 1,9 20,0 NNO 26,0 1030,1 63 - 213
15:59 8,4 1,8 26,0 NNO 26,0 1030,1 63 - 183
16:04 8,2 1,7 16,0 NNO 26,0 1030,1 64 - 190
16:09 8,2 1,6 20,0 NNO 23,0 1030,1 63 - 666
16:14 8,5 1,7 18,0 NNO 24,0 1030,1 63 - 666
16:19 9,0 2,3 16,0 Noorden 23,0 1030,1 63 - 656
16:24 9,1 2,4 18,0 Noorden 23,0 1030,1 63 - 700
16:28 9,1 2,4 24,0 NNO 32,0 1030,1 63 - 729
16:34 9,1 2,4 18,0 NNO 32,0 1030,1 63 - 246
16:39 8,8 1,9 18,0 Noorden 29,0 1030,1 62 - 306
16:44 8,6 1,9 20,0 NNO 29,0 1030,1 63 - 265
16:49 8,4 1,5 18,0 Noorden 29,0 1030,1 62 - 269
16:54 8,3 1,8 23,0 NNO 26,0 1030,1 64 - 151
16:59 8,1 1,7 20,0 NNO 26,0 1030,1 64 - 123
17:04 7,9 1,7 16,0 NNO 24,0 1030,1 65 - 134
17:09 7,8 1,8 18,0 Noorden 24,0 1030,1 66 - 153
17:14 7,9 1,9 20,0 NNO 27,0 1030,1 66 - 158
17:19 7,8 1,8 23,0 NNO 29,0 1030,1 66 - 204
17:23 7,9 2,2 20,0 NNO 26,0 1030,1 67 - 190
17:29 7,9 2,2 14,0 NNO 21,0 1030,1 67 - 151
17:34 7,8 2,1 23,0 Noorden 32,0 1030,1 67 - 160
17:39 7,7 2,2 18,0 NNO 32,0 1030,1 68 - 276
17:44 7,8 2,3 26,0 NNO 29,0 1030,1 68 - 390
17:49 8,0 2,4 34,0 NNO 37,0 1030,1 68 - 425
17:54 8,2 2,6 20,0 NNO 26,0 1030,1 68 - 434
17:59 8,2 2,6 23,0 NNO 29,0 1030,1 68 - 439
18:04 8,3 2,7 18,0 NNO 24,0 1030,1 68 - 383
18:09 8,3 2,7 23,0 Noorden 26,0 1030,1 68 - 366
18:14 8,1 2,5 23,0 Noorden 27,0 1030,1 68 - 355
18:18 7,9 2,6 18,0 Noorden 31,0 1030,1 69 - 350
18:24 7,9 2,6 20,0 NNO 31,0 1030,1 69 - 295
18:29 7,8 2,7 20,0 NNO 27,0 1030,1 70 - 227
18:34 7,8 2,7 18,0 Noorden 24,0 1030,1 70 - 195
18:39 7,8 2,5 26,0 NNO 27,0 1030,1 69 - 251
18:44 7,7 2,4 21,0 NO 32,0 1030,1 69 - 253
18:49 7,7 2,4 20,0 NNO 23,0 1030,1 69 - 246
18:54 7,7 2,4 18,0 NNO 23,0 1030,1 69 - 213
18:58 7,6 2,3 20,0 NO 24,0 1030,1 69 - 202
19:04 7,5 2,2 21,0 NNO 26,0 1030,1 69 - 134
Dagelijkse Samenvatting Woensdag 14 april 2021
Tijd Temp. ( °C ) Dew pt. ( °C ) Wind ( km/h ) van Windvlaag ( km/h ) Luchtdruk ( hPa ) Humid.( % ) Rainrate ( cm ) Zonneschijn ( W/m2 )
Hoog9,1 3,1 34,0 NNO ( 1287/2074 ) 37,0 1032,2 87 - 874
Gemiddeld5,6 1,0 9,1 Kalm #83/228 11,9 1030,9 73 - 399 #145/228
Laag0,9 -1,8 -   0,0 1030,1 62 -  
Dagelijkse Tabular details for Woensdag 14 april 2021
Tijd Temp. ( °C ) Dew pt. ( °C ) Wind ( km/h ) van Windvlaag ( km/h ) Luchtdruk ( hPa ) Humid.( % ) Rainrate ( cm ) Zonneschijn ( W/m2 )
00:04 4,6 -0,4   Kalm   1032,2 70 - -
00:08 4,6 -0,4   Kalm   1032,2 70 - -
00:14 4,5 -0,5   Kalm   1032,2 70 - -
00:19 4,4 -0,5   Kalm   1031,8 71 - -
00:24 4,3 -0,5   Kalm   1031,8 71 - -
00:29 4,2 -0,6   Kalm   1031,8 71 - -
00:34 4,1 -0,5   Kalm   1031,8 72 - -
00:39 4,0 -0,6   Kalm   1031,8 72 - -
00:44 3,9 -0,5   Kalm   1031,8 73 - -
00:49 3,9 -0,3   Kalm   1031,8 74 - -
00:54 3,9 -0,1   Kalm   1031,8 75 - -
00:59 4,0 0,0   Kalm   1031,8 75 - -
01:04 3,9 -0,1   Kalm   1031,8 75 - -
01:09 3,9 0,1 1,0 NNW 2,0 1031,8 76 - -
01:14 3,9 0,2 1,0 NNW 3,0 1031,8 77 - -
01:19 3,9 0,2   Kalm 2,0 1031,8 77 - -
01:24 3,9 0,2   Kalm   1031,8 77 - -
01:29 3,9 0,2 3,0 OZO 3,0 1031,8 77 - -
01:34 3,9 0,2   Kalm 2,0 1031,8 77 - -
01:39 4,0 0,3   Kalm   1031,5 77 - -
01:44 3,9 0,2   Kalm   1031,5 77 - -
01:49 3,9 0,4   Kalm   1031,5 78 - -
01:53 3,9 0,4   Kalm   1031,5 78 - -
01:59 3,9 0,4   Kalm 2,0 1031,5 78 - -
02:04 3,9 0,6   Kalm   1031,5 79 - -
02:09 3,9 0,6   Kalm   1031,5 79 - -
02:14 3,8 0,5   Kalm   1031,5 79 - -
02:19 3,8 0,5   Kalm   1031,5 79 - -
02:24 3,8 0,6 1,0 OZO 2,0 1031,5 80 - -
02:29 3,7 0,7 1,0 OZO 2,0 1031,5 81 - -
02:34 3,7 0,7   Kalm   1031,5 81 - -
02:39 3,6 0,6   Kalm   1031,5 81 - -
02:44 3,6 0,6   Kalm   1031,5 81 - -
02:49 3,5 0,5 1,0 OZO 2,0 1031,2 81 - -
02:54 3,4 0,4 1,0 OZO 3,0 1031,2 81 - -
02:59 3,4 0,4 1,0 OZO 2,0 1031,2 81 - -
03:04 3,3 0,4 1,0 OZO 2,0 1031,2 81 - -
03:09 3,3 0,4 3,0 OZO 3,0 1031,2 81 - -
03:14 3,3 0,2 1,0 OZO 3,0 1031,2 80 - -
03:19 3,2 -0,1 1,0 ZO 3,0 1031,2 79 - -
03:24 3,2 -0,3   Kalm 2,0 1031,2 78 - -
03:29 3,1 -0,2 1,0 ZO 2,0 1031,2 79 - -
03:34 3,1 -0,2   Kalm 2,0 1031,2 79 - -
03:39 3,0 -0,6 1,0 ZO 3,0 1031,2 77 - -
03:44 3,1 -0,7 3,0 ZO 5,0 1031,2 76 - -
03:49 3,2 -0,7 3,0 ZZO 5,0 1031,2 76 - -
03:54 3,2 -0,8 1,0 ZZO 3,0 1031,2 75 - -
03:59 3,2 -0,8   Kalm 2,0 1031,2 75 - -
04:04 3,2 -0,8   Kalm   1031,2 75 - -
04:09 3,1 -0,9   Kalm   1031,2 75 - -
04:14 3,0 -1,0   Kalm   1031,2 75 - -
04:19 3,0 -1,1   Kalm   1031,2 75 - -
04:24 2,9 -0,9   Kalm   1031,2 76 - -
04:29 2,8 -0,8   Kalm   1031,2 77 - -
04:34 2,7 -0,9   Kalm   1031,2 77 - -
04:39 2,7 -0,8   Kalm   1031,2 78 - -
04:49 2,4 -1,0   Kalm   1031,2 78 - -
04:54 2,3 -1,1   Kalm   1031,2 78 - -
04:59 2,1 -1,3   Kalm   1031,2 78 - -
05:04 2,1 -1,3   Kalm   1031,2 79 - -
05:09 1,9 -1,4   Kalm   1030,8 79 - -
05:14 1,8 -1,5   Kalm   1030,8 79 - -
05:19 1,7 -1,4   Kalm   1030,8 80 - -
05:24 1,7 -1,4   Kalm   1030,8 80 - -
05:28 1,7 -1,2   Kalm   1030,8 81 - -
05:34 1,6 -1,3   Kalm   1030,8 81 - -
05:39 1,4 -1,5   Kalm   1030,8 81 - -
05:44 1,3 -1,6   Kalm   1030,8 81 - -
05:49 1,3 -1,6   Kalm   1030,8 81 - -
05:54 1,2 -1,7   Kalm   1030,8 81 - -
05:59 1,2 -1,5   Kalm   1030,8 82 - -
06:04 1,1 -1,6   Kalm   1030,8 82 - -
06:09 1,1 -1,6   Kalm   1030,5 82 - -
06:14 0,9 -1,8   Kalm   1030,8 82 - -
06:19 0,9 -1,7   Kalm   1030,5 83 - -
06:24 0,9 -1,7   Kalm   1030,5 83 - -
06:29 0,9 -1,7   Kalm   1030,5 83 - -
06:34 1,1 -1,5   Kalm   1030,5 83 - -
06:39 1,1 -1,5   Kalm   1030,5 83 - -
06:44 1,1 -1,5   Kalm   1030,5 83 - -
06:49 1,1 -1,5   Kalm   1030,5 83 - -
06:54 1,2 -1,2   Kalm   1030,5 84 - -
06:59 1,2 -1,2   Kalm   1030,5 84 - -
07:04 1,2 -1,0   Kalm   1030,5 85 - 5
07:09 1,3 -0,9 1,0 ZZW 3,0 1030,8 85 - 9
07:14 1,3 -0,8 3,0 ZZW 3,0 1030,8 86 - 14
07:18 1,3 -0,8   Kalm 3,0 1030,5 86 - 18
07:24 1,3 -0,8   Kalm   1030,8 86 - 25
07:29 1,3 -0,8   Kalm   1030,8 86 - 35
07:34 1,3 -0,8   Kalm 2,0 1030,8 86 - 42
07:39 1,3 -0,8   Kalm   1030,8 86 - 46
07:44 1,4 -0,7   Kalm   1030,8 86 - 51
07:49 1,4 -0,5 1,0 ZZW 3,0 1031,2 87 - 65
07:54 1,6 -0,3   Kalm 2,0 1031,2 87 - 77
07:59 1,7 -0,2   Kalm   1031,2 87 - 83
08:04 1,9 0,0   Kalm   1031,2 87 - 121
08:09 2,0 0,1   Kalm   1031,2 87 - 141
08:14 2,2 0,3   Kalm   1031,2 87 - 97
08:19 2,3 0,4   Kalm   1031,2 87 - 104
08:24 2,6 0,7   Kalm   1031,2 87 - 142
08:29 2,8 0,9   Kalm   1031,2 87 - 116
08:34 3,2 1,2   Kalm   1031,2 87 - 244
08:39 3,7 1,6   Kalm   1031,2 87 - 279
08:44 4,1 1,7 3,0 WZW 3,0 1031,2 86 - 287
08:49 4,4 1,6 3,0 Westen 5,0 1031,2 83 - 285
08:54 4,6 1,4 5,0 WNW 5,0 1031,2 81 - 278
08:59 4,8 1,3 3,0 WNW 5,0 1031,2 78 - 276
09:04 5,1 1,8 3,0 WNW 3,0 1031,2 79 - 285
09:09 5,3 1,8 5,0 WNW 5,0 1031,2 78 - 299
09:14 5,4 1,3 3,0 WNW 6,0 1031,2 75 - 309
09:19 5,8 1,5 3,0 WNW 6,0 1031,2 74 - 327
09:24 6,1 1,6 5,0 NW 6,0 1031,2 74 - 341
09:29 6,2 1,4 5,0 WNW 6,0 1031,2 72 - 355
09:34 6,4 1,1 3,0 WNW 6,0 1031,2 70 - 366
09:39 6,4 0,9 3,0 WNW 5,0 1031,2 68 - 373
09:44 6,6 1,3 6,0 NW 6,0 1031,2 69 - 385
09:49 6,7 0,8 3,0 NW 6,0 1031,2 66 - 404
09:54 7,1 1,4 3,0 WNW 5,0 1031,2 67 - 420
09:59 7,2 1,4 3,0 WNW 6,0 1031,2 67 - 434
10:04 7,4 1,2 8,0 NNW 10,0 1031,2 65 - 448
10:09 7,5 0,9 5,0 NW 10,0 1031,2 63 - 455
10:14 7,8 1,2 6,0 NNW 10,0 1031,2 63 - 476
10:19 7,8 1,2 10,0 Noorden 11,0 1031,2 63 - 503
10:24 7,8 1,5 10,0 NNW 16,0 1031,2 65 - 557
10:29 7,8 2,3 8,0 Noorden 16,0 1031,2 68 - 605
10:34 8,0 2,7 13,0 NNO 15,0 1031,2 69 - 628
10:39 8,2 2,9 11,0 NNW 16,0 1031,2 69 - 578
10:44 7,9 2,5 14,0 NNO 15,0 1031,2 69 - 192
10:49 7,8 2,6 14,0 NNO 18,0 1031,2 70 - 603
10:54 7,9 3,0 13,0 Noorden 16,0 1031,2 71 - 591
10:59 8,0 2,9 14,0 NNO 15,0 1031,2 70 - 594
11:04 7,9 2,8 13,0 NNO 18,0 1031,2 70 - 649
11:08 8,1 2,8 13,0 NO 18,0 1031,2 69 - 693
11:14 8,2 3,0 23,0 NNO 23,0 1031,2 70 - 643
11:19 8,1 2,6 16,0 NNO 23,0 1031,2 69 - 696
11:24 8,2 3,1 18,0 NNO 21,0 1031,5 70 - 696
11:29 8,2 2,9 18,0 NNO 21,0 1031,5 69 - 679
11:34 8,1 2,8 18,0 NNO 23,0 1031,5 69 - 459
11:39 7,8 2,4 21,0 NNO 21,0 1031,5 69 - 675
11:44 7,8 2,5 14,0 NO 19,0 1031,2 69 - 722
11:49 8,2 3,0 13,0 NO 16,0 1031,2 70 - 749
11:54 8,3 2,7 14,0 NO 18,0 1031,2 68 - 784
11:59 8,4 2,8 18,0 ONO 18,0 1031,2 68 - 791
12:04 8,6 2,8 18,0 NO 21,0 1031,2 67 - 810
12:09 8,6 2,8 20,0 NO 21,0 1031,2 67 - 777
12:14 8,2 2,4 21,0 NO 21,0 1031,2 67 - 631
12:19 8,4 2,7 11,0 NO 19,0 1031,2 68 - 585
12:24 8,4 2,4 18,0 NO 23,0 1031,2 66 - 302
12:29 8,3 2,3 14,0 NO 19,0 1031,2 66 - 731
12:34 8,4 2,4 13,0 NNO 19,0 1031,2 66 - 686
12:39 8,4 2,0 16,0 NNO 16,0 1030,8 64 - 487
12:44 8,4 2,0 16,0 NNO 18,0 1031,2 64 - 487
12:49 8,3 2,1 13,0 Noorden 16,0 1030,8 65 - 204
12:54 8,3 1,9 14,0 NNO 15,0 1030,8 64 - 192
12:59 8,2 1,8 13,0 NNW 21,0 1030,8 64 - 193
13:04 8,1 2,1 11,0 Noorden 19,0 1030,8 66 - 183
13:09 8,2 2,2 10,0 Noorden 19,0 1030,8 66 - 230
13:14 8,1 1,7 14,0 Noorden 19,0 1030,8 64 - 306
13:19 8,3 2,0 14,0 NNO 23,0 1030,8 65 - 587
13:24 8,6 2,4 18,0 NNO 19,0 1030,8 65 - 643
13:29 8,7 2,7 18,0 NNO 21,0 1030,8 66 - 657
13:34 8,6 2,4 16,0 Noorden 19,0 1030,8 65 - 796
13:39 8,7 2,5 18,0 NNO 21,0 1030,8 65 - 758
13:44 8,7 2,5 13,0 NNO 23,0 1030,8 65 - 323
13:49 8,6 2,7 20,0 NNO 24,0 1030,8 67 - 253
13:54 8,4 2,4 24,0 NNO 27,0 1030,8 67 - 257
13:59 8,1 2,8 23,0 NNO 29,0 1030,8 69 - 246
14:04 8,1 2,8 27,0 NNO 31,0 1030,8 69 - 376
14:09 8,3 3,1 26,0 Noorden 31,0 1030,8 70 - 842
14:14 8,2 2,6 20,0 NNO 26,0 1030,8 68 - 355
14:19 8,2 2,4 21,0 NNO 26,0 1030,8 67 - 388
14:24 8,3 2,7 21,0 NNO 26,0 1030,8 68 - 805
14:29 8,6 2,8 29,0 NNO 29,0 1030,8 68 - 819
14:34 8,8 3,0 16,0 Noorden 29,0 1030,8 67 - 835
14:39 8,7 2,5 21,0 NNO 29,0 1030,8 65 - 230
14:44 8,3 2,1 18,0 Noorden 26,0 1030,8 65 - 297
14:49 8,2 2,0 16,0 NO 24,0 1030,8 65 - 830
14:54 8,6 2,4 18,0 Noorden 26,0 1030,8 66 - 874
14:59 8,7 2,5 21,0 NNO 24,0 1030,8 65 - 316
15:04 8,6 1,8 20,0 NNO 26,0 1030,8 63 - 819
15:08 8,6 2,0 23,0 NNO 24,0 1030,8 63 - 833
15:14 8,6 2,2 24,0 NO 26,0 1030,5 64 - 793
15:19 8,6 2,0 23,0 NNO 24,0 1030,5 63 - 772
15:24 8,5 2,0 20,0 NNO 24,0 1030,5 64 - 236
15:29 8,3 1,8 20,0 NNO 27,0 1030,5 64 - 401
15:34 8,3 1,9 24,0 NO 27,0 1030,5 64 - 401
15:39 8,5 2,1 23,0 NNO 23,0 1030,5 64 - 770
15:44 8,9 2,3 26,0 NNO 34,0 1030,1 64 - 791
15:49 8,8 1,8 21,0 NNO 29,0 1030,1 62 - 218
15:54 8,5 1,9 20,0 NNO 26,0 1030,1 63 - 213
15:59 8,4 1,8 26,0 NNO 26,0 1030,1 63 - 183
16:04 8,2 1,7 16,0 NNO 26,0 1030,1 64 - 190
16:09 8,2 1,6 20,0 NNO 23,0 1030,1 63 - 666
16:14 8,5 1,7 18,0 NNO 24,0 1030,1 63 - 666
16:19 9,0 2,3 16,0 Noorden 23,0 1030,1 63 - 656
16:24 9,1 2,4 18,0 Noorden 23,0 1030,1 63 - 700
16:28 9,1 2,4 24,0 NNO 32,0 1030,1 63 - 729
16:34 9,1 2,4 18,0 NNO 32,0 1030,1 63 - 246
16:39 8,8 1,9 18,0 Noorden 29,0 1030,1 62 - 306
16:44 8,6 1,9 20,0 NNO 29,0 1030,1 63 - 265
16:49 8,4 1,5 18,0 Noorden 29,0 1030,1 62 - 269
16:54 8,3 1,8 23,0 NNO 26,0 1030,1 64 - 151
16:59 8,1 1,7 20,0 NNO 26,0 1030,1 64 - 123
17:04 7,9 1,7 16,0 NNO 24,0 1030,1 65 - 134
17:09 7,8 1,8 18,0 Noorden 24,0 1030,1 66 - 153
17:14 7,9 1,9 20,0 NNO 27,0 1030,1 66 - 158
17:19 7,8 1,8 23,0 NNO 29,0 1030,1 66 - 204
17:23 7,9 2,2 20,0 NNO 26,0 1030,1 67 - 190
17:29 7,9 2,2 14,0 NNO 21,0 1030,1 67 - 151
17:34 7,8 2,1 23,0 Noorden 32,0 1030,1 67 - 160
17:39 7,7 2,2 18,0 NNO 32,0 1030,1 68 - 276
17:44 7,8 2,3 26,0 NNO 29,0 1030,1 68 - 390
17:49 8,0 2,4 34,0 NNO 37,0 1030,1 68 - 425
17:54 8,2 2,6 20,0 NNO 26,0 1030,1 68 - 434
17:59 8,2 2,6 23,0 NNO 29,0 1030,1 68 - 439
18:04 8,3 2,7 18,0 NNO 24,0 1030,1 68 - 383
18:09 8,3 2,7 23,0 Noorden 26,0 1030,1 68 - 366
18:14 8,1 2,5 23,0 Noorden 27,0 1030,1 68 - 355
18:18 7,9 2,6 18,0 Noorden 31,0 1030,1 69 - 350
18:24 7,9 2,6 20,0 NNO 31,0 1030,1 69 - 295
18:29 7,8 2,7 20,0 NNO 27,0 1030,1 70 - 227
18:34 7,8 2,7 18,0 Noorden 24,0 1030,1 70 - 195
18:39 7,8 2,5 26,0 NNO 27,0 1030,1 69 - 251
18:44 7,7 2,4 21,0 NO 32,0 1030,1 69 - 253
18:49 7,7 2,4 20,0 NNO 23,0 1030,1 69 - 246
18:54 7,7 2,4 18,0 NNO 23,0 1030,1 69 - 213
18:58 7,6 2,3 20,0 NO 24,0 1030,1 69 - 202
19:04 7,5 2,2 21,0 NNO 26,0 1030,1 69 - 134

Download your copy of this data-set  here

Our weather-data as stored at Weather Underground. Script ontwikkeld door Jim McMurry. Aangepast voor de template door Leuven-Template.eu

Apparatuur in gebruik:

Weerstation
Davis Vantage Pro2

Weerprogramma
Meteobridge

Weercomputer
TP-Link TL-MR3020

Webleverancier
One.com

Davis Vantage Pro2

Meteobridge

TP-Link TL-MR3020

One.com